Location: Heidgraben
(53.7081°N, 9.6576°E)
Time: 23:33:10
(UTC+00:00)

Cosmos 2333 Rocket - Pass Details

Date: 26 October 2020
Orbit: 841 x 861 km, 70.8° (Epoch: 28 November)

Event Time Altitude Azimuth Distance (km) Brightness Sun altitude
Exits shadow 01:08:54 15° 8° (N) 2,155 4.7 -42.1°
Drops below altitude 10° 01:10:24 10° 21° (NNE) 2,487 5.2 -42.0°
Sets 01:13:36 0° 39° (NE) 3,420 6.2 -41.7°
